TimeEDT,TemperatureF,Dew PointF,Humidity,Sea Level PressureIn,VisibilityMPH,Wind Direction,Wind SpeedMPH,Gust SpeedMPH,PrecipitationIn,Events,Conditions,WindDirDegrees,DateUTC
12:58 AM,79.7,77.0,91,30.19,10.0,SE,3.5,-,N/A,,Clear,140,2013-07-30 04:58:00
1:58 AM,79.7,76.6,90,30.17,10.0,SSE,4.6,-,N/A,,Clear,150,2013-07-30 05:58:00
2:58 AM,79.3,76.8,92,30.16,10.0,ESE,1.2,-,N/A,,Clear,110,2013-07-30 06:58:00
3:58 AM,79.3,76.8,92,30.14,10.0,SE,4.6,-,N/A,,Clear,140,2013-07-30 07:58:00
4:58 AM,79.3,76.8,92,30.14,10.0,SSE,3.5,-,N/A,,Clear,160,2013-07-30 08:58:00
5:58 AM,79.0,76.6,92,30.16,10.0,Calm,Calm,-,N/A,,Clear,0,2013-07-30 09:58:00
6:58 AM,79.0,76.3,91,30.17,10.0,Calm,Calm,-,N/A,,Clear,0,2013-07-30 10:58:00
7:58 AM,79.5,76.5,90,30.17,10.0,Calm,Calm,-,N/A,,Clear,0,2013-07-30 11:58:00
8:58 AM,82.9,77.2,83,30.19,10.0,Variable,1.2,-,N/A,,Clear,0,2013-07-30 12:58:00
9:58 AM,86.0,75.2,70,30.17,7.0,ENE,6.9,-,N/A,,Scattered Clouds,70,2013-07-30 13:58:00
10:58 AM,87.8,75.2,66,30.17,7.0,ENE,6.9,-,N/A,,Scattered Clouds,60,2013-07-30 14:58:00
11:58 AM,87.8,75.2,66,30.14,7.0,ENE,6.9,-,N/A,,Scattered Clouds,70,2013-07-30 15:58:00
12:58 PM,86.0,75.2,70,30.16,7.0,ENE,6.9,-,N/A,,Scattered Clouds,70,2013-07-30 16:58:00
1:57 PM,89.6,77.0,66,30.16,7.0,East,5.8,-,N/A,,Scattered Clouds,80,2013-07-30 17:57:00
2:58 PM,87.8,77.0,70,30.16,7.0,East,10.4,-,N/A,,Scattered Clouds,100,2013-07-30 18:58:00
3:58 PM,85.3,75.6,73,30.14,10.0,ESE,10.4,-,N/A,,Clear,120,2013-07-30 19:58:00
4:58 PM,84.9,74.3,70,30.14,10.0,ESE,8.1,-,N/A,,Clear,110,2013-07-30 20:58:00
5:58 PM,83.7,75.6,76,30.14,10.0,SE,10.4,-,N/A,,Clear,130,2013-07-30 21:58:00
6:58 PM,82.9,75.7,79,30.14,10.0,SE,6.9,-,N/A,,Clear,140,2013-07-30 22:58:00
7:58 PM,82.0,75.9,82,30.14,10.0,SE,5.8,-,N/A,,Clear,140,2013-07-30 23:58:00
8:58 PM,81.1,75.2,82,30.16,10.0,SE,5.8,-,N/A,,Clear,130,2013-07-31 00:58:00
9:58 PM,81.0,76.1,85,30.14,10.0,SE,6.9,-,N/A,,Clear,130,2013-07-31 01:58:00
10:58 PM,80.6,76.8,88,30.15,10.0,ESE,6.9,-,N/A,,Clear,120,2013-07-31 02:58:00
11:58 PM,80.6,76.8,88,30.15,10.0,SE,4.6,-,N/A,,Clear,140,2013-07-31 03:58:00